SR1WXW Weather Reports


time (UTC)temp
C
wind
direction
speed
KPH
gust
KPH
rain 1hr
cm
rain 24hr
cm
rain mn
cm
humidity
%
barometer
mb
20260507035256 5 0 1.6 12.9 0.00 2.31 0.00 93 1006.3
20260507034756 5 0 3.2 6.4 0.00 2.31 0.00 93 1006.2
20260507034256 5 337 3.2 6.4 0.00 2.31 0.00 93 1006.1
20260507033756 5 0 0.0 6.4 0.00 2.31 0.00 93 1006.0
20260507033256 5 0 3.2 8.0 0.00 2.31 0.00 93 1006.0
20260507032756 5 0 4.8 8.0 0.00 2.31 0.00 93 1006.1
20260507032256 5 0 1.6 4.8 0.00 2.31 0.00 93 1006.1
20260507031756 5 22 0.0 6.4 0.00 2.31 0.00 93 1006.1
20260507031256 5 0 1.6 8.0 0.00 2.31 0.00 93 1006.1
20260507030756 5 0 1.6 6.4 0.00 2.31 0.00 93 1006.0
20260507030256 5 0 1.6 6.4 0.00 2.31 0.00 93 1006.0
20260507025756 5 0 1.6 4.8 0.00 2.46 0.00 93 1006.0
20260507025256 5 0 3.2 6.4 0.00 2.46 0.00 93 1005.8
20260507024756 5 22 3.2 3.2 0.00 2.46 0.00 93 1005.8
20260507024256 5 22 0.0 4.8 0.00 2.46 0.00 93 1005.7
20260507023756 5 0 3.2 6.4 0.00 2.46 0.00 93 1005.7
20260507023256 5 22 3.2 4.8 0.00 2.46 0.00 93 1005.8
20260507022756 5 0 4.8 9.7 0.00 2.46 0.00 93 1005.9
20260507022256 5 0 1.6 6.4 0.00 2.46 0.00 93 1005.9
20260507021756 5 0 3.2 6.4 0.00 2.46 0.00 93 1006.0
20260507021256 5 45 3.2 4.8 0.00 2.46 0.00 93 1006.0
20260507020756 5 22 3.2 3.2 0.00 2.46 0.00 93 1006.0
20260507020256 5 0 1.6 6.4 0.00 2.46 0.00 93 1006.0
20260507015756 5 22 1.6 4.8 0.00 2.46 0.00 93 1005.9
20260507015256 5 22 3.2 4.8 0.00 2.46 0.00 93 1005.9
20260507014756 5 0 1.6 6.4 0.00 2.46 0.00 93 1005.8
20260507014256 5 315 4.8 4.8 0.00 2.46 0.00 94 1005.9
20260507013757 5 22 1.6 4.8 0.00 2.46 0.00 94 1005.8
20260507013256 5 0 3.2 3.2 0.00 2.46 0.00 94 1005.7
20260507012756 5 337 3.2 8.0 0.00 2.46 0.00 94 1005.6
20260507012256 5 0 1.6 3.2 0.00 2.46 0.00 94 1005.4
20260507011756 5 22 3.2 6.4 0.00 2.46 0.00 94 1005.6
20260507011256 5 45 0.0 4.8 0.00 2.46 0.00 94 1005.6
20260507010756 5 337 3.2 4.8 0.00 2.46 0.00 94 1005.6
20260507010256 5 45 0.0 4.8 0.00 2.46 0.00 94 1005.6
20260507005756 5 0 0.0 4.8 0.00 2.46 0.00 94 1005.6
20260507005256 5 45 0.0 6.4 0.00 2.46 0.00 94 1005.4
20260507004756 5 22 1.6 6.4 0.00 2.46 0.00 94 1005.4
20260507004256 5 22 1.6 8.0 0.00 2.46 0.00 94 1005.3
20260507003756 5 22 3.2 4.8 0.00 2.46 0.00 94 1005.2
20260507003256 5 315 3.2 6.4 0.00 2.46 0.00 94 1005.2
20260507002756 5 22 1.6 4.8 0.00 2.46 0.00 94 1005.2
20260507002256 5 45 3.2 4.8 0.00 2.46 0.00 94 1005.3
20260507001756 5 22 3.2 4.8 0.00 2.46 0.00 94 1005.3
20260507001256 5 0 1.6 8.0 0.00 2.46 0.00 94 1005.1
20260507000756 5 22 3.2 6.4 0.00 2.46 0.00 94 1005.2
20260507000258 5 0 3.2 8.0 0.00 2.46 0.00 94 1005.1
20260506235756 5 22 6.4 6.4 0.00 2.46 0.00 94 1005.0
20260506235257 5 0 4.8 8.0 0.00 2.46 0.00 94 1005.1
20260506234757 5 22 3.2 9.7 0.00 2.46 0.00 94 1005.0
20260506234257 5 0 4.8 8.0 0.00 2.46 0.00 94 1004.9
20260506233757 5 22 3.2 9.7 0.00 2.46 0.00 94 1004.9
20260506233257 5 22 6.4 6.4 0.00 2.46 0.00 94 1004.9
20260506232757 5 0 6.4 9.7 0.00 2.46 0.00 94 1004.8
20260506232257 5 22 6.4 9.7 0.00 2.46 0.00 94 1004.7
20260506231757 5 22 6.4 6.4 0.00 2.46 0.00 94 1004.8
20260506231257 5 22 6.4 8.0 0.00 2.46 0.00 94 1004.8
20260506230757 5 337 1.6 6.4 0.00 2.46 0.00 94 1004.9
20260506230257 5 22 8.0 8.0 0.00 2.46 0.00 94 1004.7
20260506225757 5 45 8.0 8.0 0.00 2.46 0.00 94 1004.8
20260506225257 5 22 6.4 6.4 0.00 2.46 0.00 94 1005.0
20260506224757 5 157 0.0 4.8 0.00 2.46 0.00 94 1005.1
20260506224257 5 0 1.6 6.4 0.00 2.46 0.00 94 1005.1
20260506223757 5 0 1.6 6.4 0.00 2.46 0.00 94 1004.9
20260506223257 5 22 0.0 4.8 0.00 2.46 0.00 94 1005.0
20260506222757 5 0 3.2 4.8 0.00 2.46 0.00 94 1005.0
20260506222257 5 22 1.6 11.3 0.00 2.46 0.00 94 1005.0
20260506221757 5 22 3.2 6.4 0.00 2.46 0.00 94 1005.0
20260506221257 5 22 6.4 6.4 0.00 2.46 0.00 94 1005.0
20260506220757 5 22 4.8 6.4 0.00 2.46 0.00 94 1004.9
20260506220257 5 0 4.8 8.0 0.00 2.46 0.00 94 1004.7
20260506215757 5 0 6.4 6.4 0.00 2.46 0.00 94 1004.8
20260506215257 5 22 3.2 11.3 0.00 2.46 0.00 94 1004.8
20260506214757 5 337 1.6 6.4 0.00 2.46 0.00 94 1004.8
20260506214257 5 22 4.8 6.4 0.00 2.46 0.00 94 1004.8
20260506213757 5 0 3.2 6.4 0.00 2.46 0.00 94 1004.8
20260506213257 5 22 6.4 8.0 0.00 2.46 0.00 94 1004.7
20260506212757 5 22 3.2 6.4 0.00 2.46 0.00 94 1004.4
20260506212257 5 22 1.6 6.4 0.00 2.46 0.00 94 1004.3
20260506211757 5 22 3.2 8.0 0.00 2.46 0.00 94 1004.5
20260506211257 5 22 4.8 4.8 0.00 2.46 0.00 94 1004.4
20260506210757 5 0 1.6 6.4 0.00 2.46 0.00 94 1004.5
20260506210257 5 22 0.0 3.2 0.00 2.46 0.00 94 1004.4
20260506205757 5 0 3.2 4.8 0.00 2.46 0.00 94 1004.3
20260506205257 5 0 1.6 4.8 0.00 2.46 0.00 94 1004.1
20260506204757 5 45 3.2 11.3 0.00 2.46 0.00 94 1004.3
20260506204257 5 0 3.2 12.9 0.00 2.46 0.00 94 1004.1
20260506203757 5 0 1.6 8.0 0.00 2.46 0.00 94 1004.1
20260506203257 5 0 3.2 4.8 0.00 2.46 0.00 94 1004.3
20260506202757 5 22 1.6 4.8 0.00 2.46 0.00 94 1004.3
20260506202257 5 315 3.2 3.2 0.00 2.46 0.00 94 1004.1
20260506201757 5 0 0.0 4.8 0.00 2.46 0.00 94 1004.1
20260506201257 5 22 0.0 4.8 0.00 2.46 0.00 94 1004.1
20260506200757 5 0 3.2 3.2 0.00 2.46 0.00 94 1004.0
20260506200257 5 22 1.6 3.2 0.00 2.46 0.00 94 1004.0
20260506195757 5 0 1.6 6.4 0.00 2.46 0.00 94 1004.0
20260506195257 5 0 1.6 6.4 0.00 2.46 0.00 94 1004.0
20260506194757 5 337 3.2 6.4 0.00 2.46 0.00 94 1004.1
20260506194257 5 0 3.2 3.2 0.00 2.46 0.00 94 1004.1
20260506193757 5 0 1.6 3.2 0.00 2.46 0.00 94 1004.0
20260506193257 5 22 0.0 6.4 0.00 2.46 0.00 93 1003.9
20260506192757 5 337 1.6 3.2 0.00 2.46 0.00 93 1003.8
20260506192257 5 67 3.2 4.8 0.00 2.46 0.00 93 1003.6
20260506191757 5 0 1.6 6.4 0.00 2.46 0.00 93 1003.4
20260506191257 5 0 1.6 3.2 0.00 2.46 0.00 93 1003.4
20260506190757 5 0 0.0 3.2 0.00 2.46 0.00 93 1003.5
20260506190257 5 0 3.2 3.2 0.00 2.46 0.00 93 1003.5
20260506185757 5 22 1.6 3.2 0.00 2.46 0.00 93 1003.5
20260506185257 5 0 1.6 4.8 0.00 2.46 0.00 93 1003.5
20260506184757 5 22 0.0 3.2 0.00 2.46 0.00 93 1003.4
20260506184257 5 0 1.6 3.2 0.00 2.46 0.00 93 1003.4
20260506183757 5 0 0.0 1.6 0.00 2.46 0.00 93 1003.5
20260506183257 5 0 1.6 4.8 0.00 2.46 0.00 93 1003.4
20260506182757 5 0 0.0 3.2 0.00 2.46 0.00 93 1003.4
20260506182257 6 315 1.6 6.4 0.00 2.46 0.00 93 1003.4
20260506181757 6 22 0.0 3.2 0.00 2.46 0.00 93 1003.4
20260506181257 6 337 3.2 3.2 0.00 2.46 0.00 93 1003.3
20260506180757 6 22 0.0 4.8 0.00 2.46 0.00 93 1003.4
20260506180257 6 337 0.0 4.8 0.00 2.46 0.00 93 1003.3
20260506175757 6 0 0.0 3.2 0.00 2.46 0.00 93 1003.3
20260506175257 6 22 3.2 3.2 0.00 2.46 0.00 94 1003.3
20260506174757 6 0 1.6 3.2 0.00 2.46 0.00 94 1003.1
20260506174257 6 0 0.0 3.2 0.00 2.46 0.00 94 1003.0
20260506173757 6 315 1.6 3.2 0.00 2.46 0.00 94 1003.0
20260506173257 6 0 0.0 3.2 0.00 2.46 0.00 94 1003.1
20260506172757 6 270 3.2 4.8 0.00 2.46 0.00 94 1003.0
20260506172257 6 0 1.6 3.2 0.00 2.46 0.00 94 1003.0
20260506171757 6 292 4.8 4.8 0.00 2.46 0.00 94 1003.0
20260506171257 6 270 1.6 6.4 0.00 2.46 0.00 94 1002.9
20260506170757 6 292 3.2 3.2 0.00 2.46 0.00 94 1002.9
20260506170257 6 0 3.2 3.2 0.00 2.46 0.00 94 1002.8
20260506165757 6 337 1.6 4.8 0.00 2.46 0.00 94 1002.6
20260506165257 6 315 0.0 3.2 0.00 2.46 0.00 94 1002.6
20260506164757 6 292 3.2 3.2 0.00 2.46 0.00 94 1002.6
20260506164258 6 337 1.6 4.8 0.00 2.46 0.00 94 1002.5
20260506163758 7 22 0.0 4.8 0.00 2.46 0.00 94 1002.5
20260506163258 7 0 1.6 3.2 0.00 2.46 0.00 94 1002.5
20260506162758 7 0 1.6 3.2 0.00 2.46 0.00 94 1002.4
20260506162258 7 270 3.2 3.2 0.00 2.46 0.00 94 1002.4
20260506161758 7 315 1.6 12.9 0.00 2.46 0.00 94 1002.4
20260506161258 7 337 3.2 3.2 0.00 2.46 0.00 94 1002.3
20260506160758 7 0 1.6 3.2 0.05 2.46 0.00 94 1002.3
20260506160258 7 0 3.2 4.8 0.05 2.46 0.00 94 1002.2
20260506155758 7 0 1.6 4.8 0.05 2.46 0.00 94 1002.2
20260506155258 7 0 3.2 6.4 0.05 2.46 0.00 94 1002.2
20260506154758 7 22 3.2 6.4 0.05 2.46 0.00 94 1002.2
20260506154258 7 22 3.2 6.4 0.05 2.46 0.00 94 1002.3
20260506153758 7 22 1.6 6.4 0.05 2.46 0.00 94 1002.3
20260506153258 7 0 1.6 6.4 0.05 2.46 0.00 94 1002.3
20260506152758 7 22 1.6 4.8 0.05 2.46 0.00 94 1002.2
20260506152258 7 22 0.0 4.8 0.05 2.46 0.00 94 1002.2
20260506151758 7 0 1.6 3.2 0.05 2.46 0.00 94 1002.2
20260506151258 7 0 3.2 4.8 0.05 2.46 0.00 94 1002.2
20260506150758 7 22 3.2 4.8 0.00 2.41 0.00 94 1002.2
20260506150303 7 315 3.2 6.4 0.00 2.41 0.00 94 1002.0
20260506145758 7 22 3.2 3.2 0.00 2.41 0.00 94 1001.9
20260506145258 7 22 3.2 4.8 0.00 2.41 0.00 94 1001.9
20260506144758 7 0 3.2 8.0 0.00 2.41 0.00 94 1001.8
20260506144258 7 22 1.6 9.7 0.00 2.41 0.00 94 1001.8
20260506143758 7 0 0.0 3.2 0.00 2.41 0.00 94 1001.9
20260506143258 7 337 1.6 4.8 0.00 2.41 0.00 94 1002.1
20260506142758 7 315 3.2 6.4 0.00 2.41 0.00 94 1002.0
20260506142258 7 292 4.8 8.0 0.00 2.41 0.00 94 1001.9
20260506141758 7 270 3.2 3.2 0.00 2.41 0.00 94 1001.7
20260506141258 7 292 3.2 4.8 0.00 2.41 0.00 94 1001.7
20260506140758 7 270 1.6 4.8 0.00 2.41 0.00 94 1001.7
20260506140258 7 315 4.8 4.8 0.00 2.41 0.00 94 1001.7
20260506135758 7 315 1.6 3.2 0.00 2.41 0.00 94 1001.7
20260506135258 7 292 3.2 3.2 0.00 2.41 0.00 93 1001.6
20260506134758 7 292 3.2 4.8 0.00 2.41 0.00 93 1001.7
20260506134258 7 0 3.2 3.2 0.00 2.41 0.00 93 1001.8
20260506133758 7 270 0.0 3.2 0.00 2.41 0.00 93 1001.7
20260506133258 7 315 0.0 1.6 0.00 2.41 0.00 93 1001.7
20260506132758 7 292 0.0 1.6 0.00 2.41 0.00 93 1001.6
20260506132258 7 315 0.0 4.8 0.00 2.41 0.00 93 1001.7
20260506131758 7 292 3.2 3.2 0.00 2.41 0.00 93 1001.7
20260506131258 7 292 0.0 4.8 0.00 2.41 0.00 93 1001.5
20260506130758 7 292 1.6 1.6 0.00 2.41 0.00 93 1001.4
20260506130258 7 315 0.0 4.8 0.00 2.41 0.00 93 1001.3
20260506125758 7 315 1.6 4.8 0.00 2.46 0.00 93 1001.4
20260506125258 7 315 0.0 1.6 0.00 2.46 0.00 93 1001.5
20260506124758 7 315 0.0 3.2 0.00 2.46 0.00 93 1001.4
20260506124258 7 337 0.0 0.0 0.00 2.46 0.00 93 1001.4
20260506123758 7 315 0.0 1.6 0.00 2.46 0.00 93 1001.3
20260506123258 7 0 0.0 1.6 0.05 2.46 0.00 93 1001.2
20260506122758 7 0 0.0 3.2 0.05 2.46 0.00 93 1001.4
20260506122258 7 0 0.0 1.6 0.05 2.46 0.00 93 1001.2
20260506121758 7 45 1.6 3.2 0.05 2.46 0.00 93 1001.2
20260506121258 7 0 0.0 1.6 0.05 2.46 0.00 93 1001.2
20260506120758 7 22 1.6 1.6 0.05 2.46 0.00 93 1001.3
20260506120258 7 22 0.0 3.2 0.05 2.46 0.00 93 1001.3
20260506115758 7 0 0.0 3.2 0.05 2.57 0.00 93 1001.2
20260506115258 7 0 0.0 3.2 0.05 2.57 0.00 93 1001.3
20260506114758 7 0 0.0 3.2 0.05 2.57 0.00 93 1001.3
20260506114258 7 22 0.0 3.2 0.05 2.57 0.00 93 1001.3
20260506113758 7 45 0.0 1.6 0.00 2.51 0.00 93 1001.2
20260506113258 7 0 1.6 3.2 0.00 2.51 0.00 93 1001.2
20260506112758 7 0 0.0 1.6 0.05 2.51 0.00 93 1001.2
20260506112258 7 22 0.0 3.2 0.05 2.51 0.00 93 1001.1
20260506111758 7 0 0.0 3.2 0.05 2.51 0.00 93 1001.1
20260506111258 7 0 0.0 3.2 0.05 2.51 0.00 93 1001.1
20260506110758 7 45 0.0 4.8 0.05 2.51 0.00 93 1001.2
20260506110258 7 22 3.2 6.4 0.05 2.51 0.00 93 1001.2
20260506105758 7 0 1.6 4.8 0.05 2.57 0.00 93 1001.0
20260506105258 7 22 0.0 4.8 0.05 2.57 0.00 93 1000.9
20260506104758 7 22 3.2 3.2 0.05 2.57 0.00 93 1000.9
20260506104258 7 0 1.6 1.6 0.05 2.57 0.00 93 1000.9
20260506103758 7 0 1.6 4.8 0.05 2.57 0.00 93 1001.0
20260506103258 7 0 0.0 3.2 0.05 2.57 0.00 93 1000.9
20260506102758 7 0 1.6 4.8 0.00 2.51 0.00 93 1000.9
20260506102258 7 22 1.6 3.2 0.00 2.51 0.00 93 1001.0
20260506101758 7 22 1.6 3.2 0.00 2.51 0.00 93 1001.0
20260506101258 7 22 3.2 8.0 0.00 2.51 0.00 93 1001.0
20260506100758 7 0 8.0 8.0 0.00 2.51 0.00 93 1001.0
20260506100258 7 22 0.0 6.4 0.00 2.51 0.00 93 1000.9
20260506095758 7 22 1.6 3.2 0.00 2.79 0.00 93 1000.9
20260506095259 7 22 1.6 4.8 0.00 2.79 0.00 93 1000.8
20260506094759 7 22 1.6 6.4 0.00 2.79 0.00 93 1000.9
20260506094259 7 22 1.6 4.8 0.00 2.79 0.00 93 1000.9
20260506093759 7 0 3.2 4.8 0.00 2.79 0.00 93 1000.8
20260506093259 7 67 3.2 4.8 0.05 2.79 0.00 93 1000.8
20260506092759 7 0 3.2 3.2 0.05 2.79 0.00 93 1000.8
20260506092259 7 22 3.2 3.2 0.05 2.79 0.00 93 1000.8
20260506091759 7 22 0.0 6.4 0.10 2.79 0.00 93 1000.8
20260506091259 7 22 3.2 6.4 0.15 2.79 0.00 93 1000.8
20260506090759 7 22 6.4 6.4 0.25 2.79 0.00 93 1000.8
20260506090259 7 45 1.6 4.8 0.30 2.79 0.00 93 1000.7
20260506085759 7 22 3.2 3.2 0.36 2.95 0.00 93 1000.8
20260506085259 7 22 3.2 3.2 0.41 2.95 0.00 93 1000.7
20260506084759 7 67 3.2 4.8 0.56 2.95 0.00 93 1000.6
20260506084259 7 22 1.6 4.8 0.61 2.95 0.00 93 1000.7
20260506083759 7 45 1.6 4.8 0.71 2.95 0.00 93 1000.6
20260506083259 7 112 3.2 3.2 0.81 2.90 0.00 93 1000.8
20260506082759 7 22 0.0 4.8 0.86 2.90 0.00 93 1000.8
20260506082259 7 22 1.6 4.8 0.91 2.90 0.00 93 1000.7
20260506081759 7 45 4.8 4.8 0.91 2.84 0.00 93 1000.8
20260506081259 7 0 4.8 4.8 0.86 2.74 0.00 93 1000.8
20260506080759 7 0 3.2 8.0 0.81 2.62 0.00 93 1000.9
20260506080259 7 0 1.6 6.4 0.81 2.57 0.00 93 1000.9
20260506073259 7 22 0.0 3.2 0.46 2.06 0.00 92 1000.9
20260506072759 7 45 0.0 4.8 0.46 2.01 0.00 92 1000.8
20260506072259 7 0 4.8 4.8 0.41 1.91 0.00 92 1001.0
20260506071759 7 45 3.2 6.4 0.36 1.85 0.00 92 1001.0
20260506071259 7 22 3.2 3.2 0.36 1.85 0.00 92 1000.9
20260506070759 7 0 0.0 4.8 0.41 1.80 0.00 92 1000.8
20260506070259 7 0 1.6 3.2 0.36 1.70 0.00 92 1000.8
20260506062259 7 22 0.0 4.8 0.36 1.50 0.00 92 1000.9
20260506061759 7 0 1.6 6.4 0.36 1.50 0.00 92 1001.1
20260506061259 7 45 1.6 4.8 0.36 1.45 0.00 92 1001.1
20260506060759 7 45 3.2 4.8 0.36 1.40 0.00 92 1001.1
20260506060259 7 22 1.6 4.8 0.30 1.32 0.00 92 1001.1
20260506051259 7 22 3.2 3.2 0.20 1.07 0.00 91 1001.7
20260506050759 7 22 0.0 0.0 0.20 1.02 0.00 91 1001.7
20260506050259 7 135 0.0 0.0 0.15 0.97 0.00 91 1001.8
20260506044759 7 337 3.2 4.8 0.25 0.91 0.00 91 1001.8
20260506044259 7 67 0.0 3.2 0.30 0.91 0.00 91 1001.6
20260506043759 8 45 0.0 4.8 0.30 0.91 0.00 91 1001.7
20260506043259 8 45 0.0 8.0 0.30 0.91 0.00 91 1001.7
20260506042759 8 22 3.2 4.8 0.25 0.86 0.00 91 1001.7
20260506042259 8 22 4.8 6.4 0.25 0.86 0.00 91 1001.6
20260506041759 8 22 0.0 4.8 0.25 0.86 0.00 91 1001.5
20260506041259 8 22 3.2 6.4 0.20 0.81 0.00 91 1001.5
20260506040759 8 45 4.8 6.4 0.20 0.81 0.00 91 1001.5
20260506040259 8 45 4.8 8.0 0.15 0.76 0.00 91 1001.4
20260506035759 8 45 3.2 8.0 0.10 0.71 0.00 91 1001.6